Regional Weather Roundup
Issued by NWS

Home | Current Version | Previous Version | Graphics & Text | Print | Product List | Glossary On
Versions: 1 2 3 4 5 6 7 8 9 10 11 12 13 14 15 16 17 18 19 20 21 22 23 24 25 26 27 28 29 30 31 32 33 34 35 36 37 38 39 40 41 42 43 44 45 46 47 48 49 50
000
ASUS43 KDTX 051801
RWRMI
MICHIGAN HOURLY REGIONAL WEATHER ROUNDUP
NATIONAL WEATHER SERVICE DETROIT/PONTIAC MI
100 PM EST MON DEC 05 2016

NOTE: "FAIR" INDICATES FEW OR NO CLOUDS BELOW 12,000 FEET WITH NO
SIGNIFICANT WEATHER AND/OR OBSTRUCTION TO VISIBILITY.

MIZ047>049-052>055-059>063-066>070-074>076-081>083-051900-
SOUTHEAST LOWER MICHIGAN

CITY           SKY/WX    TMP DP  RH WIND       PRES   REMARKS
ADRIAN         CLOUDY    36  32  85 SW9       30.07S WCI  29
6HR MIN TEMP:  35; 6HR MAX TEMP:  36;

ALMA           MOSUNNY   39  31  72 SW13      30.00R WCI  32
6HR MIN TEMP:  34; 6HR MAX TEMP:  39;

ANN ARBOR      CLOUDY    39  33  79 S12       30.03F WCI  32
BAD AXE        CLOUDY    40  34  80 W15       29.97R WCI  31
CARO           MOSUNNY   40  33  74 SW16      29.98S WCI  32
DETROIT CITY   CLOUDY    41  31  67 W9        30.04S
6HR MIN TEMP:  36; 6HR MAX TEMP:  41;

DETROIT        PTSUNNY   40  31  70 W10       30.05F WCI  33
6HR MIN TEMP:  36; 6HR MAX TEMP:  41;

FLINT          CLOUDY    39  32  76 SW13G18   30.02S WCI  31
6HR MIN TEMP:  34; 6HR MAX TEMP:  40;

GROSSE ILE     CLOUDY    40  32  74 W7        30.04F WCI  35
6HR MIN TEMP:  37; 6HR MAX TEMP:  40;

HILLSDALE      CLOUDY    32  30  93 S8        30.03F WCI  25
HOWELL         CLOUDY    38  32  77 W8        30.02S WCI  32

CITY           SKY/WX    TMP DP  RH WIND       PRES   REMARKS
JACKSON        CLOUDY    37  31  78 SW14      30.03F WCI  28
6HR MIN TEMP:  34; 6HR MAX TEMP:  37;

LAMBERTVILLE   CLOUDY    39  32  75 SW6       30.07F WCI  35
6HR MIN TEMP:  37; 6HR MAX TEMP:  39;

LANSING        PTSUNNY   39  32  76 SW10      30.02S WCI  32
6HR MIN TEMP:  34; 6HR MAX TEMP:  39;

LAPEER         NOT AVBL
MASON          CLOUDY    37  33  84 SW8       30.03S WCI  31
MONROE         CLOUDY    39  34  81 SW10      30.05F WCI  33
MT. CLEMENS    PTSUNNY   41  31  68 W10       30.02R
6HR MIN TEMP:  37; 6HR MAX TEMP:  41;

PONTIAC        CLOUDY    39  31  72 W8        30.01S WCI  33
6HR MIN TEMP:  34; 6HR MAX TEMP:  39;

PORT HOPE        N/A     42  34  73 W9G18     29.93R
6HR MIN TEMP:  34; 6HR MAX TEMP:  42;

PORT HURON     CLOUDY    39  32  75 W7        30.03R WCI  34
TRI CITIES     PTSUNNY   38  33  82 SW16      29.99R WCI  29
6HR MIN TEMP:  34; 6HR MAX TEMP:  38;

MIDLAND        CLOUDY    40  30  69 SW10G16   29.97R WCI  33
6HR MIN TEMP:  34; 6HR MAX TEMP:  40;

TROY           CLOUDY    40  30  66 W10       30.05S WCI  34
SAGINAW HB     MOSUNNY   41  32  70 W10       29.99S
$$
MIZ043>046-050>051-056>058-064>065-071>073-077>080-051900-
SOUTHWEST LOWER MICHIGAN

CITY           SKY/WX    TMP DP  RH WIND       PRES   REMARKS
BATTLE CREEK   CLOUDY    35  32  88 SW12      30.03F WCI  27
6HR MIN TEMP:  34; 6HR MAX TEMP:  36;

BENTON HARBOR  CLOUDY    34  30  85 S9        30.05S FOG     WCI  27
6HR MIN TEMP:  34; 6HR MAX TEMP:  37;

BIG RAPIDS     MOSUNNY   41  29  64 W10       29.96S
6HR MIN TEMP:  35; 6HR MAX TEMP:  41;

COLDWATER      CLOUDY    34  30  85 SW8       30.05F WCI  27
6HR MIN TEMP:  34; 6HR MAX TEMP:  35;

FREMONT        FAIR      40  28  60 W5        29.98S
HOLLAND        PTSUNNY   40  32  73 SW12      30.01S WCI  33
6HR MIN TEMP:  37; 6HR MAX TEMP:  41;

GRAND RAPIDS   PTSUNNY   38  30  73 W13       30.01S WCI  30
6HR MIN TEMP:  34; 6HR MAX TEMP:  39;

IONIA          PTSUNNY   38  32  78 SW9       30.00S WCI  32
6HR MIN TEMP:  33; 6HR MAX TEMP:  38; 6HR PCP:  0.03;

KALAMAZOO      CLOUDY    35  30  82 S14       30.04F HAZE    WCI  26
6HR MIN TEMP:  35; 6HR MAX TEMP:  36;

LUDINGTON      PTSUNNY   40  33  78 SW12      29.97R WCI  32
6HR MIN TEMP:  37; 6HR MAX TEMP:  41;

MARSHALL       CLOUDY    36  32  85 SW9       30.03F WCI  29
6HR MIN TEMP:  34; 6HR MAX TEMP:  36;

MOUNT PLEASANT CLOUDY    39  31  73 W12       29.97S WCI  31
6HR MIN TEMP:  34; 6HR MAX TEMP:  39;

MUSKEGON       PTSUNNY   41  34  76 SW13      30.00S
6HR MIN TEMP:  38; 6HR MAX TEMP:  43;

SOUTH HAVEN    CLOUDY    37  33  88 S12       30.03F WCI  29
$$
MIZ016>042-051900-
NORTHERN LOWER MICHIGAN

CITY           SKY/WX    TMP DP  RH WIND       PRES   REMARKS
ALPENA         CLOUDY    40  32  73 W9        29.88F WCI  34
6HR MIN TEMP:  34; 6HR MAX TEMP:  40;

BEAVER ISLAND  CLOUDY    40  30  68 W15G22    29.87F WCI  32
BELLAIRE       PTSUNNY   40  31  69 W8        29.92S
6HR MIN TEMP:  35; 6HR MAX TEMP:  40;

CADILLAC       CLOUDY    38  31  73 W10G16    29.92S WCI  32
CHARLEVOIX     CLOUDY    41  32  69 W17G25    29.92R
FRANKFORT      PTSUNNY   40  32  73 W8        29.94S WCI  35
GAYLORD        PTSUNNY   38  29  70 W17       29.87R WCI  28
6HR MIN TEMP:  34; 6HR MAX TEMP:  38; 6HR PCP:  0.01;

GRAYLING       PTSUNNY   39  32  74 W10G18    29.91R WCI  33
HARBOR SPRINGS CLOUDY    41  31  69 W13G22    29.87S
HOUGHTON LAKE  PTSUNNY   38  30  73 W13       29.92R WCI  30
6HR MIN TEMP:  33; 6HR MAX TEMP:  38;

MANISTEE       CLOUDY    40  32  73 SW8       29.96R WCI  34
OSCODA         MOSUNNY   41  36  81 SW10      29.92R
6HR MIN TEMP:  33; 6HR MAX TEMP:  41;

PELLSTON       CLOUDY    39  30  70 W8        29.87S WCI  33
6HR MIN TEMP:  35; 6HR MAX TEMP:  39; 6HR PCP:  0.08;

ROGERS CITY    CLOUDY    37  34  92 CALM      29.89R
TRAVERSE CITY  PTSUNNY   41  30  65 W9        29.93R
6HR MIN TEMP:  36; 6HR MAX TEMP:  41;

$$
MIZ007>008-015-051900-
EASTERN UPPER MICHIGAN

CITY           SKY/WX    TMP DP  RH WIND       PRES   REMARKS
KINROSS        PTSUNNY   38  32  79 W13       29.84R WCI  30
6HR MIN TEMP:  32; 6HR MAX TEMP:  38; 6HR PCP: TRACE;

MACKINAC ISLAN CLOUDY    38  30  72 W21G28    29.85S WCI  28
6HR MIN TEMP:  34; 6HR MAX TEMP:  38;

NEWBERRY       MOSUNNY   35  32  90 W13       29.84R WCI  26
6HR MIN TEMP:  32; 6HR MAX TEMP:  35;

S. S. MARIE    CLOUDY    36  32  85 W7        29.83R WCI  30
6HR MIN TEMP:  33; 6HR MAX TEMP:  37; 6HR PCP: TRACE;

MUNISING         N/A     39  30  70 W6        29.84S WCI  35
6HR MIN TEMP:  32; 6HR MAX TEMP:  39;

$$
MIZ004>006-011>014-085-051900-
CENTRAL UPPER MICHIGAN

CITY           SKY/WX    TMP DP  RH WIND       PRES   REMARKS
MANISTIQUE     SUNNY     39  33  78 SW6G16    29.86F WCI  35
6HR MIN TEMP:  32; 6HR MAX TEMP:  39;

ESCANABA       MOSUNNY   38  30  73 W8        29.88F WCI  32
6HR MIN TEMP:  32; 6HR MAX TEMP:  39;

MENOMINEE      PTSUNNY   36  30  79 SW8       29.92R WCI  30
6HR MIN TEMP:  32; 6HR MAX TEMP:  39;

SAWYER-GWINN   CLOUDY    34  28  80 W6        29.84R WCI  29
$$
MIZ001>003-009>011-084-051900-
WESTERN UPPER MICHIGAN

CITY           SKY/WX    TMP DP  RH WIND       PRES   REMARKS
IRON MOUNTAIN  SUNNY     38  27  64 SW6       29.83S WCI  33
6HR MIN TEMP:  33; 6HR MAX TEMP:  38;

HOUGHTON       CLOUDY    35  29  78 W9        29.79S WCI  28
6HR MIN TEMP:  35; 6HR MAX TEMP:  36; 6HR PCP: TRACE;

COPPER HARBOR    N/A     37  32  82 VRB5      29.81R WCI  33
6HR MIN TEMP:  33; 6HR MAX TEMP:  39; 6HR PCP:  0.02;

IRONWOOD       SUNNY     37  29  72 S3        29.80F
6HR MIN TEMP:  32; 6HR MAX TEMP:  37;

$$

ABBREVIATIONS USED IN REMARKS
   TC - TEMPERATURE IN CELSIUS
  WCI - WIND CHILL INDEX
   HX - HEAT INDEX
  VSB - VISIBILITY




USA.gov is the U.S. government's official web portal to all federal, state and local government web resources and services.